Location: Platte
(43.3870°N, 98.8440°W)
Time: 13:33:10
(UTC-05:00)

Daily predictions for brighter satellites

Satellite Brightness Start Highest point End
(mag) Time Altitude Azimuth Time Altitude Azimuth Time Altitude Azimuth
Cosmos 909 Rocket 4.3 21:19:50 10° NNW 21:26:10 86° WSW 21:33:18 10° SSE
Cosmos 1725 Rocket 4.2 21:23:47 10° SSE 21:29:42 51° E 21:35:41 10° NNE
Cosmos 1980 Rocket 2.4 21:25:21 10° NNW 21:31:00 64° ENE 21:36:37 10° SE
SL-23 DEB 3.9 21:31:33 10° WSW 21:34:41 70° NNW 21:38:45 10° NE
USA 238 DEB 3.7 21:28:10 10° SSW 21:34:54 62° ESE 21:41:45 10° NE
USA 238 3.7 21:28:18 10° SSW 21:35:01 62° ESE 21:41:51 10° NE
Cosmos 1812 2.9 21:32:14 10° SSW 21:36:04 78° W 21:39:56 10° N
YAOGAN 6 3.6 21:32:50 10° S 21:36:26 49° W 21:40:03 10° NNW
Cosmos 1666 4.0 21:35:51 10° NNE 21:39:07 25° ENE 21:42:23 10° SE
Cosmos 1743 4.0 21:37:23 10° NNE 21:40:34 24° ENE 21:43:43 10° SE
Cosmos 1833 Rocket 3.6 21:41:37 10° SW 21:47:07 54° WNW 21:52:39 10° NNE
Abrixas rocket 4.0 21:45:53 10° SSE 21:47:22 13° SE 21:48:33 11° ESE
Cosmos 304 Rocket 4.1 21:43:33 10° S 21:48:08 46° ESE 21:52:44 10° NNE
H-2A R/B 2.8 21:44:22 10° SE 21:48:47 34° ENE 21:53:17 10° N
Cosmos 1802 Rocket 4.4 21:43:06 10° SSW 21:49:23 71° W 21:55:48 10° N
ERS-2 3.5 21:50:49 10° SSW 21:54:15 37° W 21:57:43 10° NNW
ATLAS CENTAUR R/B 1.7 21:50:19 10° NW 21:54:50 82° WSW 21:59:24 11° SSE
DNEPR-1 R/B 3.7 21:51:01 10° SSW 21:55:05 50° ESE 21:59:39 10° NE
Cosmos 1242 Rocket 3.5 21:56:35 10° N 21:59:56 32° ENE 22:02:29 15° SE
Cosmos 2208 Rocket 4.2 21:55:01 10° S 21:59:57 47° ESE 22:04:55 10° NNE
Cosmos 1898 Rocket 4.1 21:56:09 10° N 22:01:13 44° ENE 22:05:32 14° SE
Okean 1 Rocket 3.0 21:57:32 10° N 22:01:56 85° E 22:06:16 10° S
Cosmos 1975 Rocket 3.6 21:59:42 10° SSE 22:03:42 38° E 22:07:42 10° NNE
Cosmos 1674 Rocket 4.2 22:00:24 10° SSW 22:04:47 59° W 22:09:13 10° N
Cosmos 1378 Rocket 3.5 22:00:46 10° S 22:05:05 85° E 22:09:25 10° N
Tiangong 2 2.4 22:03:15 10° SSW 22:05:41 21° SSE 22:06:44 18° SE
USA 234 3.4 22:01:14 10° NE 22:07:48 80° NW 22:14:23 10° WSW
NOSS 3-2 (A) 3.4 22:03:02 10° SSW 22:08:48 61° ESE 22:15:12 10° NE
Resurs 01 Rocket 3.0 22:05:10 10° SSW 22:09:14 36° W 22:13:20 10° NNW
BREEZE M DEB (TANK) 3.7 21:56:48 10° WNW 22:09:48 77° NNE 22:13:13 14° ESE
Cosmos 1975 2.8 22:06:25 10° N 22:10:29 73° E 22:14:02 13° SSE
COSMOS 2487 3.0 22:08:08 10° SSW 22:11:35 60° WNW 22:15:05 10° NNE
ERS-1 Rocket 3.4 22:07:59 14° SE 22:11:59 46° ENE 22:16:47 10° N
NOSS 3-2 (C) 3.6 22:06:41 10° S 22:12:15 46° ESE 22:18:23 10° NE
BREEZE-M R/B 2.2 22:08:15 10° SW 22:12:32 68° SSE 22:15:11 10° ENE
BREEZE-M DEB (TANK) 2.8 22:10:49 10° WNW 22:13:26 26° SW 22:14:30 17° S
Cosmos 2233 Rocket 4.0 22:07:31 10° S 22:13:37 71° E 22:19:46 10° NNE
MetOp-A 4.2 22:08:47 11° SSE 22:13:50 74° ENE 22:19:12 10° N
Atlas Centaur 2 3.2 22:13:48 10° SSW 22:14:40 11° S 22:14:50 11° S
Cosmos 2082 Rocket 4.0 22:12:18 10° WSW 22:17:29 36° NW 22:22:44 10° N
ATLAS CENTAUR R/B 4.2 22:12:01 10° SSW 22:18:29 66° ESE 22:38:13 10° NE
Cosmos 2322 Rocket 2.6 22:14:21 10° NNW 22:19:51 51° ENE 22:23:50 18° SE
Meteor 1-12 Rocket 4.3 22:18:50 10° N 22:24:48 85° E 22:30:07 14° S
SL-16 R/B 2.4 22:20:46 10° NNW 22:26:24 61° ENE 22:30:19 20° SE
Cosmos 990 Rocket 4.2 22:25:07 10° NNW 22:30:16 56° ENE 22:33:34 22° SE
GPS 2-04 Rocket1 4.3 22:29:38 10° WSW 22:32:54 21° SSW 22:34:05 19° S
ARGOS 3.3 22:30:47 13° S 22:35:37 72° WSW 22:41:03 10° NNW
SPOT 5 3.1 22:33:17 23° SE 22:35:39 45° ENE 22:39:57 10° N
Timation 2 Rocket 3.8 22:30:10 10° SSW 22:36:05 71° ESE 22:42:07 10° NNE
Meteor 1-19 Rocket 4.3 22:32:47 10° S 22:38:41 81° E 22:44:37 10° NNE
SJ 16-02 3.2 22:36:50 10° NNE 22:40:01 19° ENE 22:42:00 15° E
Landsat 7 4.4 22:39:40 23° SE 22:42:06 41° ENE 22:46:34 10° N
Helios 1A 3.1 22:40:33 27° SE 22:42:38 57° ENE 22:46:42 10° N
CENTAUR R/B 3.0 22:42:23 17° S 22:46:23 37° ESE 22:52:26 10° NE
Cosmos 2298 Rocket 4.2 22:41:13 10° NNW 22:46:30 62° ENE 22:49:22 26° SE
Cosmos 2034 Rocket 4.4 22:49:35 24° SE 22:52:50 44° E 22:58:36 10° NNE
ATLAS 3B R/B 3.5 22:49:23 10° SW 22:56:24 55° NW 23:03:10 10° NNE
USA 32 4.0 22:52:10 10° N 22:57:27 88° E 23:00:37 25° S
Cosmos 2084 3.4 22:54:01 11° SSW 22:58:02 58° ESE 23:02:04 10° NE
Shenzhou-11 Module 1.7 22:55:13 10° W 22:58:12 82° S 22:58:34 64° ESE
Cosmos 1464 Rocket 4.0 22:54:32 20° S 22:59:04 69° E 23:05:25 10° NNE
Aureole 2 Rocket 2.7 22:56:46 10° N 22:59:42 39° ENE 22:59:50 39° ENE
Terra 2.4 22:58:53 29° ESE 23:00:45 42° ENE 23:05:14 10° N
Lacrosse 5 rocket 3.1 22:57:05 10° NNW 23:00:48 27° NNE 23:03:34 14° E
ISS -3.3 23:00:17 10° WSW 23:03:32 61° NNW 23:06:47 10° NE
USA 245 3.5 23:02:28 32° SSW 23:03:40 52° W 23:07:27 10° NNW
Cosmos 1937 Rocket 3.5 23:00:22 10° NNW 23:05:30 73° WSW 23:08:06 29° S
Meteor 1-23 Rocket 4.2 23:06:40 29° SSE 23:09:27 61° E 23:14:56 10° NNE
CARTOSAT-1 3.8 23:08:56 39° SE 23:10:16 57° ENE 23:14:30 10° N
Cosmos 2360 Rocket 2.4 23:06:46 10° NNW 23:12:21 59° ENE 23:14:49 33° SE
Cosmos 1980 Rocket 4.3 23:10:35 10° WNW 23:14:25 19° W 23:18:16 10° SW
Cosmos 1891 Rocket 4.4 23:14:05 24° S 23:18:03 84° E 23:24:25 10° N
CZ-4C R/B 3.9 23:12:03 10° NNW 23:18:26 36° NE 23:24:16 15° E
Cosmos 2219 Rocket 3.9 23:14:24 10° N 23:18:45 23° NE 23:21:44 15° E
Cosmos 1763 Rocket 3.8 23:14:12 10° SSW 23:19:30 69° WNW 23:24:48 10° NNE
Cosmos 841 Rocket 3.4 23:17:56 22° SSW 23:21:21 87° ESE 23:26:40 10° NNE
Okean 2 3.8 23:21:30 43° ESE 23:21:49 44° E 23:25:47 10° NNE
Cosmos 540 Rocket 3.6 23:21:34 40° SSE 23:23:01 53° ESE 23:28:03 10° NNE
Abrixas rocket 4.1 23:20:07 10° WSW 23:21:10 19° WSW 23:21:10 19° WSW
SPOT 1/Viking Rocket 3.8 23:21:23 30° S 23:23:53 65° WSW 23:29:02 10° NNW
Cosmos 2333 Rocket 3.9 23:20:13 10° N 23:24:41 23° NE 23:27:46 15° E
Helios 1B rocket 2.5 23:23:25 10° N 23:27:34 77° WNW 23:29:07 37° SSW
H-2A R/B 3.5 23:24:49 14° SSW 23:28:14 28° W 23:32:32 10° NW
COSMOS 2428 3.7 23:23:12 10° N 23:28:23 35° NE 23:30:47 25° E
CZ-2C R/B 3.3 23:23:13 10° NNE 23:28:26 38° E 23:29:28 35° ESE
Cosmos 1340 Rocket 3.4 23:27:06 29° SW 23:28:58 56° WNW 23:32:59 10° N
IGS 5A 3.4 23:29:53 54° S 23:30:48 84° WSW 23:34:59 10° NNW
Cosmos 1455 Rocket 3.9 23:27:19 10° NNW 23:31:27 43° W 23:33:14 28° SW
Cosmos 1356 Rocket 3.9 23:31:40 42° E 23:31:43 42° E 23:35:47 10° NNE
Meteor 2-4 Rocket 4.4 23:27:43 14° SSW 23:32:18 51° WNW 23:37:43 10° N
Cosmos 1025 Rocket 3.1 23:36:47 52° ESE 23:37:05 54° E 23:41:22 10° NNE
Cosmos 1356 4.1 23:36:30 42° WSW 23:37:11 50° WNW 23:40:35 10° N
Cosmos 1833 4.1 23:35:04 26° SSW 23:38:25 85° ESE 23:44:09 10° NNE
Cosmos 372 Rocket 4.1 23:34:54 10° NNW 23:40:01 63° ENE 23:41:19 46° SE
Cosmos 1544 4.2 23:38:21 10° N 23:41:28 33° ENE 23:41:28 33° ENE
Tiangong 2 3.9 23:38:58 10° WSW 23:39:02 10° WSW 23:39:02 10° WSW
Spot 1 4.4 23:43:17 46° SW 23:44:06 55° WSW 23:48:07 10° NNW
Meteor 1-29 3.6 23:43:31 10° N 23:46:56 52° WNW 23:47:22 48° WSW
